Caldwell, NJ

5:57 AM EDT on August 26, 2016 (GMT -0400)
Essex County

Weather History for KCDW - November, 2012

Change the Weather History Date:

Tuesday, November 13, 2012

  Actual Average Record
Temperature  
Mean Temperature 50 °F -  
Max Temperature 63 °F 51 °F 71 °F (1964)
Min Temperature 36 °F 33 °F 20 °F (1981)
Degree Days  
Heating Degree Days 16    
Moisture  
Dew Point 40 °F    
Average Humidity 76    
Maximum Humidity 93    
Minimum Humidity 53    
Precipitation  
Precipitation 0.20 in - - ()
Sea Level Pressure  
Sea Level Pressure 30.30 in    
Wind  
Wind Speed 5 mph (NNW)    
Max Wind Speed 10 mph    
Max Gust Speed 17 mph    
Visibility 9 miles    
Events Rain    
Averages and records for this station are not official NWS values.
T = Trace of Precipitation, MM = Missing Value Source: NWS Daily Summary

Daily Weather History Graph

Daily Weather History Graph

Search for Another Location

Airport or City:

Trip Planner

Search our weather history database for the weather conditions in past years. The results will help you decide how hot, cold, wet, or windy it might be!

Date:

Astronomy

Nov. 13, 2012 Rise Set
Actual Time 6:42 AM EST 4:40 PM EST
Civil Twilight 6:13 AM EST 5:09 PM EST
Nautical Twilight 5:40 AM EST 5:42 PM EST
Astronomical Twilight 5:07 AM EST 6:14 PM EST
Moon 6:17 AM EST (11/13) 4:30 PM EST (11/13)
Length of Visible Light 10h 56m
Length of Day
9h 57m
Waning Crescent, 0% of the Moon is Illuminated
Nov 13
Waning Crescent
Nov 13
New
Nov 20
First Quarter
Nov 28
Full
Dec 6
Last Quarter

Hourly Weather History & Observations

Time (EST) Temp. Windchill Dew Point Humidity Pressure Visibility Wind Dir Wind Speed Gust Speed Precip Events Conditions
12:16 AM 60.8 °F - 57.2 °F 88% 30.17 in 10.0 mi Variable 3.5 mph - N/A   Mostly Cloudy
12:53 AM 61.0 °F - 57.0 °F 87% 30.17 in 10.0 mi South 4.6 mph - N/A   Overcast
1:53 AM 63.0 °F - 57.9 °F 84% 30.15 in 10.0 mi Variable 5.8 mph - N/A   Overcast
2:53 AM 63.0 °F - 57.9 °F 84% 30.14 in 10.0 mi Variable 6.9 mph - N/A   Overcast
3:10 AM 62.6 °F - 57.2 °F 82% 30.13 in 10.0 mi WNW 10.4 mph 17.3 mph 0.00 in Rain Light Rain
3:53 AM 51.1 °F - 48.0 °F 89% 30.20 in 2.0 mi Variable 5.8 mph - 0.10 in Rain Rain
4:03 AM 51.8 °F - 48.2 °F 88% 30.19 in 5.0 mi NW 4.6 mph - 0.01 in Rain Light Rain
4:30 AM 51.8 °F - 46.4 °F 82% 30.19 in 8.0 mi NNW 4.6 mph - 0.02 in Rain Light Rain
4:53 AM 51.1 °F - 46.0 °F 83% 30.21 in 10.0 mi NNW 4.6 mph - 0.02 in   Overcast
5:53 AM 50.0 °F - 44.1 °F 80% 30.23 in 10.0 mi Variable 3.5 mph - N/A   Overcast
6:43 AM 48.2 °F - 46.4 °F 93% 30.24 in 7.0 mi Calm Calm - 0.02 in Rain Light Rain
6:53 AM 48.0 °F - 46.0 °F 93% 30.27 in 10.0 mi NNE 4.6 mph - 0.02 in   Overcast
7:37 AM 48.2 °F - 44.6 °F 87% 30.30 in 10.0 mi NW 8.1 mph - 0.00 in   Overcast
7:53 AM 46.0 °F 41.4 °F 43.0 °F 89% 30.33 in 3.0 mi NW 9.2 mph - 0.01 in Rain Light Rain
8:10 AM 46.4 °F 43.5 °F 42.8 °F 87% 30.31 in 4.0 mi Variable 5.8 mph - 0.00 in Rain Light Rain
8:53 AM 46.0 °F - 42.1 °F 86% 30.31 in 10.0 mi Calm Calm - 0.01 in Rain Light Rain
9:53 AM 45.0 °F 41.8 °F 39.9 °F 82% 30.32 in 10.0 mi NNW 5.8 mph - 0.02 in Rain Light Rain
10:25 AM 44.6 °F 40.7 °F 39.2 °F 81% 30.31 in 10.0 mi NW 6.9 mph - 0.00 in Rain Light Rain
10:53 AM 44.1 °F 41.5 °F 39.0 °F 82% 30.33 in 9.0 mi NNE 4.6 mph - 0.01 in Rain Light Rain
11:04 AM 44.6 °F - 37.4 °F 76% 30.32 in 10.0 mi Calm Calm - 0.00 in   Overcast
11:53 AM 45.0 °F 40.1 °F 36.0 °F 71% 30.32 in 10.0 mi NW 9.2 mph - 0.00 in Rain Light Rain
12:53 PM 44.1 °F 41.5 °F 35.1 °F 71% 30.32 in 7.0 mi Variable 4.6 mph - 0.01 in Rain Rain
1:53 PM 46.0 °F 43.1 °F 35.1 °F 66% 30.34 in 10.0 mi Variable 5.8 mph - 0.00 in   Scattered Clouds
2:53 PM 46.0 °F 41.4 °F 33.1 °F 61% 30.34 in 10.0 mi NNW 9.2 mph - N/A   Mostly Cloudy
3:53 PM 45.0 °F 41.8 °F 30.0 °F 56% 30.36 in 10.0 mi Variable 5.8 mph - N/A   Overcast
4:53 PM 44.1 °F 41.5 °F 28.9 °F 55% 30.38 in 10.0 mi NNW 4.6 mph - N/A   Mostly Cloudy
5:53 PM 44.1 °F 40.8 °F 28.9 °F 55% 30.40 in 10.0 mi NNW 5.8 mph - N/A   Overcast
6:53 PM 43.0 °F 39.5 °F 27.0 °F 53% 30.43 in 10.0 mi NNW 5.8 mph - N/A   Overcast
7:53 PM 41.0 °F 38.0 °F 26.1 °F 55% 30.44 in 10.0 mi NNW 4.6 mph - N/A   Scattered Clouds
8:53 PM 39.0 °F - 27.0 °F 62% 30.46 in 10.0 mi Calm Calm - N/A   Mostly Cloudy
9:53 PM 36.0 °F - 28.0 °F 73% 30.47 in 10.0 mi Calm Calm - N/A   Partly Cloudy
10:53 PM 37.9 °F - 27.0 °F 65% 30.48 in 10.0 mi Calm Calm - N/A   Mostly Cloudy
11:53 PM 39.0 °F - 26.1 °F 60% 30.48 in 10.0 mi Calm Calm - N/A   Overcast